Location: Namasale
(1.5000°N, 32.6167°E)
Time: 09:44:02
(UTC+00:00)

Courier 1B - Pass Details

Date: 24 April 2021
Orbit: 962 x 1209 km, 28.3° (Epoch: 15 May)

Event Time Altitude Azimuth Distance (km) Brightness Sun altitude
Rises 17:44:32 0° 282° (WNW) 3,681 11.8 -28.0°
Reaches altitude 10° 17:47:22 10° 273° (W) 2,761 10.8 -28.7°
Maximum altitude 17:53:26 36° 208° (SSW) 1,590 8.6 -30.1°
Enters shadow 17:54:25 34° 191° (S) 1,644 8.6 -30.4°
Drops below altitude 10° 17:59:50 10° 144° (SE) 2,920 - -31.7°
Sets 18:02:56 0° 136° (SE) 3,919 - -32.4°
